,,,PA_Meas_PMT16A,,PR_Meas_QMR101_102,,RH_Meas_QMH101,,SR_Meas_QMS101,,TA_Meas_QMH101,,GenWind,,GenWind,
date,time,status,PA,status,PR,status,RH,status,SR,status,TA,status,DirAvg,status,SpdAvg,
2011-01-08, 00:00:05,VALID,1001.19,VALID,0,VALID,93.881,VALID,0.100563,VALID,25.8025,VALID,351,VALID,0.0558594,
2011-01-08, 00:01:05,VALID,1001.18,VALID,0,VALID,94.5371,VALID,0.100563,VALID,25.7655,VALID,351,VALID,0.280859,
2011-01-08, 00:02:05,VALID,1001.16,VALID,0,VALID,94.6439,VALID,0,VALID,25.7265,VALID,351,VALID,0.304297,
2011-01-08, 00:03:05,VALID,1001.12,VALID,0,VALID,94.8651,VALID,0.100563,VALID,25.6876,VALID,351,VALID,0.311328,
2011-01-08, 00:04:05,VALID,1001.12,VALID,0,VALID,94.8117,VALID,0,VALID,25.6486,VALID,351,VALID,0.324219,
2011-01-08, 00:05:05,VALID,1001.11,VALID,0,VALID,94.8956,VALID,0.100563,VALID,25.6272,VALID,352,VALID,0.547266,
2011-01-08, 00:06:05,VALID,1001.11,VALID,0,VALID,94.8651,VALID,0,VALID,25.6292,VALID,352,VALID,0.612891,
2011-01-08, 00:07:05,VALID,1001.07,VALID,0,VALID,95.4602,VALID,0,VALID,25.6097,VALID,352,VALID,0.384375,
2011-01-08, 00:08:05,VALID,1001.07,VALID,0,VALID,95.9942,VALID,0.100563,VALID,25.5493,VALID,350,VALID,0.496484,
2011-01-08, 00:09:05,VALID,1001.06,VALID,0,VALID,95.834,VALID,0.100563,VALID,25.4909,VALID,336,VALID,0.512109,
2011-01-08, 00:10:05,VALID,1001.06,VALID,0,VALID,96.2078,VALID,0,VALID,25.4734,VALID,337,VALID,0.384375,
2011-01-08, 00:11:05,VALID,1001.05,VALID,0,VALID,96.4519,VALID,0,VALID,25.4558,VALID,336,VALID,0.53125,
2011-01-08, 00:12:05,VALID,1001.02,VALID,0,VALID,96.4214,VALID,0,VALID,25.4539,VALID,336,VALID,0.399219,
2011-01-08, 00:13:05,VALID,1000.99,VALID,0,VALID,96.1773,VALID,0,VALID,25.4363,VALID,343,VALID,0.508203,
2011-01-08, 00:14:05,VALID,1000.98,VALID,0,VALID,96.7876,VALID,0,VALID,25.4344,VALID,344,VALID,0.0824219,
2011-01-08, 00:15:05,VALID,1000.97,VALID,0,VALID,96.7342,VALID,0,VALID,25.4149,VALID,344,VALID,0.137891,
2011-01-08, 00:16:05,VALID,1000.96,VALID,0,VALID,97.3064,VALID,0,VALID,25.4169,VALID,344,VALID,0.113281,
2011-01-08, 00:17:05,VALID,1000.95,VALID,0,VALID,97.3674,VALID,0,VALID,25.3974,VALID,346,VALID,0.309766,
2011-01-08, 00:18:05,VALID,1000.93,VALID,0,VALID,97.8404,VALID,0,VALID,25.3974,VALID,20,VALID,0.180859,
2011-01-08, 00:19:05,VALID,1000.93,VALID,0,VALID,97.253,VALID,0,VALID,25.376,VALID,20,VALID,0.267969,
2011-01-08, 00:20:05,VALID,1000.92,VALID,0,VALID,97.6954,VALID,0,VALID,25.4169,VALID,10,VALID,0.443359,
2011-01-08, 00:21:05,VALID,1000.89,VALID,0,VALID,97.1996,VALID,0,VALID,25.4363,VALID,325,VALID,0.498047,
2011-01-08, 00:22:05,VALID,1000.87,VALID,0,VALID,96.8029,VALID,0,VALID,25.4539,VALID,325,VALID,0.313281,
2011-01-08, 00:23:05,VALID,1000.88,VALID,0,VALID,96.4672,VALID,0,VALID,25.4734,VALID,322,VALID,0.248437,
2011-01-08, 00:24:05,VALID,1000.84,VALID,0,VALID,96.2078,VALID,0,VALID,25.4948,VALID,322,VALID,0.309375,
2011-01-08, 00:25:05,VALID,1000.84,VALID,0,VALID,96.4367,VALID,0,VALID,25.4948,VALID,334,VALID,0.540625,
2011-01-08, 00:26:05,VALID,1000.84,VALID,0,VALID,96.2917,VALID,0,VALID,25.4734,VALID,346,VALID,0.557813,
2011-01-08, 00:27:05,VALID,1000.82,VALID,0,VALID,96.0629,VALID,0,VALID,25.4948,VALID,348,VALID,0.645703,
2011-01-08, 00:28:05,VALID,1000.79,VALID,0,VALID,95.8645,VALID,0,VALID,25.5337,VALID,359,VALID,0.440234,
2011-01-08, 00:29:05,VALID,1000.78,VALID,0,VALID,96.1468,VALID,0,VALID,25.4928,VALID,339,VALID,0.617578,
2011-01-08, 00:30:05,VALID,1000.75,VALID,0,VALID,95.8035,VALID,0,VALID,25.5337,VALID,354,VALID,0.558984,
2011-01-08, 00:31:05,VALID,1000.74,VALID,0,VALID,96.4901,VALID,0,VALID,25.4948,VALID,356,VALID,0.11875,
2011-01-08, 00:32:05,VALID,1000.7,VALID,0,VALID,96.7113,VALID,0,VALID,25.4753,VALID,356,VALID,0.403516,
2011-01-08, 00:33:05,VALID,1000.72,VALID,0,VALID,97.253,VALID,0,VALID,25.4558,VALID,356,VALID,0.333594,
2011-01-08, 00:34:05,VALID,1000.72,VALID,0,VALID,97.5505,VALID,0,VALID,25.4169,VALID,355,VALID,0.315625,
2011-01-08, 00:35:05,VALID,1000.7,VALID,0,VALID,98.1455,VALID,0.100563,VALID,25.376,VALID,355,VALID,0.324219,
2011-01-08, 00:36:05,VALID,1000.68,VALID,0,VALID,98.6414,VALID,0,VALID,25.4169,VALID,346,VALID,0.489844,
2011-01-08, 00:37:05,VALID,1000.65,VALID,0,VALID,99.1831,VALID,0,VALID,25.4169,VALID,347,VALID,0.116797,
2011-01-08, 00:38:05,VALID,1000.63,VALID,0,VALID,99.3814,VALID,0,VALID,25.3955,VALID,347,VALID,0.0703125,
2011-01-08, 00:39:05,VALID,1000.62,VALID,0,VALID,101.395,VALID,0,VALID,25.3974,VALID,347,VALID,0,
2011-01-08, 00:40:05,VALID,1000.59,VALID,0,VALID,101.861,VALID,0,VALID,25.3974,VALID,347,VALID,0,
2011-01-08, 00:41:05,VALID,1000.57,VALID,0,VALID,102.692,VALID,0,VALID,25.3779,VALID,348,VALID,0.296094,
2011-01-08, 00:42:05,VALID,1000.58,VALID,0,VALID,101.975,VALID,0,VALID,25.3974,VALID,280,VALID,0.609375,
2011-01-08, 00:43:05,VALID,1000.57,VALID,0,VALID,100.32,VALID,0,VALID,25.4149,VALID,281,VALID,0.178516,
2011-01-08, 00:44:05,VALID,1000.55,VALID,0,VALID,98.9924,VALID,0,VALID,25.4539,VALID,355,VALID,0.699609,
2011-01-08, 00:45:05,VALID,1000.56,VALID,0,VALID,97.7946,VALID,0,VALID,25.5142,VALID,352,VALID,0.759766,
2011-01-08, 00:46:05,VALID,1000.56,VALID,0,VALID,97.4818,VALID,0,VALID,25.5727,VALID,356,VALID,0.396094,
2011-01-08, 00:47:05,VALID,1000.54,VALID,0,VALID,96.841,VALID,0,VALID,25.5727,VALID,358,VALID,1.12891,
2011-01-08, 00:48:05,VALID,1000.5,VALID,0,VALID,96.4062,VALID,0,VALID,25.6116,VALID,344,VALID,0.725,
2011-01-08, 00:49:05,VALID,1000.47,VALID,0,VALID,96.1849,VALID,0,VALID,25.5707,VALID,333,VALID,0.261328,
2011-01-08, 00:50:05,VALID,1000.44,VALID,0,VALID,96.6961,VALID,0,VALID,25.5921,VALID,333,VALID,0.154297,
2011-01-08, 00:51:05,VALID,1000.42,VALID,0,VALID,96.9402,VALID,0,VALID,25.5337,VALID,334,VALID,0.391797,
2011-01-08, 00:52:05,VALID,1000.38,VALID,0,VALID,97.6649,VALID,0,VALID,25.4948,VALID,332,VALID,0.483594,
2011-01-08, 00:53:05,VALID,1000.36,VALID,0,VALID,98.0082,VALID,0,VALID,25.4539,VALID,343,VALID,0.309766,
2011-01-08, 00:54:05,VALID,1000.34,VALID,0,VALID,98.4049,VALID,0,VALID,25.4344,VALID,343,VALID,0.323047,
2011-01-08, 00:55:05,VALID,1000.34,VALID,0,VALID,98.8321,VALID,0,VALID,25.4363,VALID,355,VALID,1.04961,
2011-01-08, 00:56:05,VALID,1000.33,VALID,0,VALID,98.3439,VALID,0,VALID,25.4734,VALID,347,VALID,0.555078,
2011-01-08, 00:57:05,VALID,1000.33,VALID,0,VALID,98.3973,VALID,0,VALID,25.4558,VALID,347,VALID,0.384766,
2011-01-08, 00:58:05,VALID,1000.34,VALID,0,VALID,99.2899,VALID,0,VALID,25.4169,VALID,347,VALID,0.355469,
2011-01-08, 00:59:05,VALID,1000.31,VALID,0,VALID,100.038,VALID,0,VALID,25.3779,VALID,346,VALID,0.262109,
2011-01-08, 01:00:05,VALID,1000.3,VALID,0,VALID,100.663,VALID,0,VALID,25.3798,VALID,346,VALID,0.227734,
2011-01-08, 01:01:05,VALID,1000.29,VALID,0,VALID,101.472,VALID,0,VALID,25.3584,VALID,346,VALID,0.114063,
2011-01-08, 01:02:05,VALID,1000.27,VALID,0,VALID,102.334,VALID,0,VALID,25.3176,VALID,346,VALID,0.463672,
2011-01-08, 01:03:05,VALID,1000.23,VALID,0,VALID,102.265,VALID,0,VALID,25.3176,VALID,348,VALID,0.240625,
2011-01-08, 01:04:05,VALID,1000.24,VALID,0,VALID,102.128,VALID,0,VALID,25.3779,VALID,346,VALID,0.720703,
2011-01-08, 01:05:05,VALID,1000.21,VALID,0,VALID,100.602,VALID,0,VALID,25.3974,VALID,354,VALID,0.664453,
2011-01-08, 01:06:05,VALID,1000.2,VALID,0,VALID,99.7552,VALID,0,VALID,25.4558,VALID,353,VALID,0.457422,
2011-01-08, 01:07:05,VALID,1000.19,VALID,0,VALID,99.4348,VALID,0,VALID,25.4558,VALID,352,VALID,0.405469,
2011-01-08, 01:08:05,VALID,1000.2,VALID,0,VALID,99.0381,VALID,0,VALID,25.4558,VALID,350,VALID,0.343359,
2011-01-08, 01:09:05,VALID,1000.18,VALID,0,VALID,98.9084,VALID,0,VALID,25.4558,VALID,350,VALID,0.372656,
2011-01-08, 01:10:05,VALID,1000.18,VALID,0,VALID,98.2066,VALID,0,VALID,25.4363,VALID,338,VALID,0.626562,
2011-01-08, 01:11:05,VALID,1000.18,VALID,0,VALID,97.9472,VALID,0,VALID,25.4363,VALID,337,VALID,0.599219,
2011-01-08, 01:12:05,VALID,1000.17,VALID,0,VALID,98.0311,VALID,0,VALID,25.4363,VALID,331,VALID,0.669922,
2011-01-08, 01:13:05,VALID,1000.14,VALID,0,VALID,97.8938,VALID,0,VALID,25.4753,VALID,358,VALID,0.692578,
2011-01-08, 01:14:05,VALID,1000.14,VALID,0,VALID,97.6039,VALID,0,VALID,25.4753,VALID,7,VALID,0.617969,
2011-01-08, 01:15:05,VALID,1000.15,VALID,0,VALID,97.2759,VALID,0,VALID,25.4734,VALID,1,VALID,0.534766,
2011-01-08, 01:16:05,VALID,1000.14,VALID,0,VALID,97.2835,VALID,0,VALID,25.4734,VALID,13,VALID,0.654688,
2011-01-08, 01:17:05,VALID,1000.13,VALID,0,VALID,97.4132,VALID,0,VALID,25.4753,VALID,9,VALID,0.542969,
2011-01-08, 01:18:05,VALID,1000.09,VALID,0,VALID,97.253,VALID,0,VALID,25.4753,VALID,350,VALID,0.673437,
2011-01-08, 01:19:05,VALID,1000.1,VALID,0,VALID,96.9173,VALID,0,VALID,25.4948,VALID,345,VALID,0.373437,
2011-01-08, 01:20:05,VALID,1000.06,VALID,0,VALID,96.8944,VALID,0,VALID,25.4967,VALID,1,VALID,0.550781,
2011-01-08, 01:21:05,VALID,1000.06,VALID,0,VALID,96.6045,VALID,0,VALID,25.5162,VALID,358,VALID,0.744531,
2011-01-08, 01:22:05,VALID,1000.05,VALID,0,VALID,96.3375,VALID,0,VALID,25.4928,VALID,2,VALID,0.722656,
2011-01-08, 01:23:05,VALID,1000.04,VALID,0,VALID,96.5511,VALID,0,VALID,25.5123,VALID,357,VALID,0.596484,
2011-01-08, 01:24:05,VALID,1000.03,VALID,0,VALID,96.8715,VALID,0,VALID,25.5142,VALID,357,VALID,0.4625,
2011-01-08, 01:25:05,VALID,1000.02,VALID,0,VALID,96.6121,VALID,0,VALID,25.5142,VALID,346,VALID,1.2582,
2011-01-08, 01:26:05,VALID,1000.01,VALID,0,VALID,96.5664,VALID,0,VALID,25.5337,VALID,343,VALID,0.591016,
2011-01-08, 01:27:05,VALID,999.957,VALID,0,VALID,96.246,VALID,0,VALID,25.5551,VALID,320,VALID,0.719141,
2011-01-08, 01:28:05,VALID,999.96,VALID,0,VALID,96.7647,VALID,0,VALID,25.5142,VALID,9,VALID,0.554297,
2011-01-08, 01:29:05,VALID,999.914,VALID,0,VALID,96.7266,VALID,0,VALID,25.4948,VALID,354,VALID,0.355859,
2011-01-08, 01:30:05,VALID,999.931,VALID,0,VALID,97.0241,VALID,0,VALID,25.4539,VALID,354,VALID,0.3875,
2011-01-08, 01:31:05,VALID,999.908,VALID,0,VALID,97.4589,VALID,0,VALID,25.4539,VALID,282,VALID,0.494531,
2011-01-08, 01:32:05,VALID,999.906,VALID,0,VALID,97.8785,VALID,0,VALID,25.4558,VALID,282,VALID,0.205469,
2011-01-08, 01:33:05,VALID,999.875,VALID,0,VALID,98.0464,VALID,0,VALID,25.4363,VALID,282,VALID,0.50625,
2011-01-08, 01:34:05,VALID,999.896,VALID,0,VALID,97.9472,VALID,0,VALID,25.4558,VALID,284,VALID,0.771094,
2011-01-08, 01:35:05,VALID,999.894,VALID,0,VALID,97.4513,VALID,0,VALID,25.4753,VALID,285,VALID,0.638281,
2011-01-08, 01:36:05,VALID,999.904,VALID,0,VALID,96.7876,VALID,0,VALID,25.4948,VALID,305,VALID,0.796875,
2011-01-08, 01:37:05,VALID,999.876,VALID,0,VALID,96.7189,VALID,0,VALID,25.5123,VALID,303,VALID,0.2125,
2011-01-08, 01:38:05,VALID,999.862,VALID,0,VALID,96.3833,VALID,0,VALID,25.5337,VALID,303,VALID,0,
2011-01-08, 01:39:05,VALID,999.881,VALID,0,VALID,96.6121,VALID,0,VALID,25.5123,VALID,303,VALID,0.0699219,
2011-01-08, 01:40:05,VALID,999.865,VALID,0,VALID,97.0317,VALID,0,VALID,25.4753,VALID,303,VALID,0.368359,
2011-01-08, 01:41:05,VALID,999.857,VALID,0,VALID,98.054,VALID,0,VALID,25.4363,VALID,303,VALID,0.191406,
2011-01-08, 01:42:05,VALID,999.876,VALID,0,VALID,99.1068,VALID,0,VALID,25.3565,VALID,303,VALID,0.278125,
2011-01-08, 01:43:05,VALID,999.878,VALID,0,VALID,101.06,VALID,0,VALID,25.3019,VALID,303,VALID,0.434766,
2011-01-08, 01:44:05,VALID,999.884,VALID,0,VALID,103.341,VALID,0,VALID,25.2221,VALID,309,VALID,0.3,
2011-01-08, 01:45:05,VALID,999.876,VALID,0,VALID,104,VALID,0,VALID,25.1618,VALID,292,VALID,0.18125,
2011-01-08, 01:46:05,VALID,999.864,VALID,0,INVALID,109.337,VALID,0,VALID,25.1423,VALID,292,VALID,0.305469,
2011-01-08, 01:47:05,VALID,999.864,VALID,0,INVALID,114.548,VALID,0,VALID,25.1053,VALID,320,VALID,0.541016,
2011-01-08, 01:48:05,VALID,999.852,VALID,0,INVALID,122.878,VALID,0,VALID,25.0858,VALID,350,VALID,0.537891,
2011-01-08, 01:49:05,VALID,999.854,VALID,0,INVALID,136.565,VALID,0,VALID,25.0274,VALID,1,VALID,0.699219,
2011-01-08, 01:50:05,VALID,999.866,VALID,0,INVALID,163.586,VALID,0,VALID,24.9514,VALID,355,VALID,0.846875,
2011-01-08, 01:51:05,VALID,999.836,VALID,0,INVALID,163.655,VALID,0,VALID,24.9106,VALID,344,VALID,0.991016,
2011-01-08, 01:52:05,VALID,999.828,VALID,0,INVALID,163.617,VALID,0,VALID,24.9671,VALID,356,VALID,1.29688,
2011-01-08, 01:53:05,VALID,999.852,VALID,0,INVALID,163.601,VALID,0,VALID,25.1267,VALID,3,VALID,0.856641,
2011-01-08, 01:54:05,VALID,999.845,VALID,0,INVALID,151.471,VALID,0,VALID,25.1442,VALID,356,VALID,0.701563,
2011-01-08, 01:55:05,VALID,999.839,VALID,0,INVALID,145.391,VALID,0,VALID,25.1053,VALID,357,VALID,0.651563,
2011-01-08, 01:56:05,VALID,999.825,VALID,0,INVALID,150.808,VALID,0,VALID,25.0663,VALID,357,VALID,0.566406,
2011-01-08, 01:57:05,VALID,999.833,VALID,0,INVALID,163.578,VALID,0,VALID,25.0079,VALID,357,VALID,0.472656,
2011-01-08, 01:58:05,VALID,999.819,VALID,0,INVALID,163.617,VALID,0,VALID,24.9709,VALID,357,VALID,0.423828,
2011-01-08, 01:59:05,VALID,999.823,VALID,0,INVALID,163.662,VALID,0,VALID,24.8716,VALID,357,VALID,0.402344,
2011-01-08, 02:00:05,VALID,999.801,VALID,0,INVALID,163.632,VALID,0,VALID,24.7937,VALID,357,VALID,0.410156,
2011-01-08, 02:01:05,VALID,999.768,VALID,0,INVALID,163.624,VALID,0,VALID,24.7353,VALID,358,VALID,0.564062,
2011-01-08, 02:02:05,VALID,999.784,VALID,0,INVALID,163.639,VALID,0,VALID,24.6964,VALID,357,VALID,0.440234,
2011-01-08, 02:03:05,VALID,999.734,VALID,0,INVALID,163.662,VALID,0,VALID,24.5972,VALID,357,VALID,0.454688,
2011-01-08, 02:04:05,VALID,999.728,VALID,0,INVALID,163.662,VALID,0,VALID,24.5796,VALID,357,VALID,0.482812,
2011-01-08, 02:05:05,VALID,999.716,VALID,0,INVALID,163.662,VALID,0,VALID,24.5212,VALID,357,VALID,0.573828,
2011-01-08, 02:06:05,VALID,999.746,VALID,0,INVALID,163.678,VALID,0,VALID,24.4628,VALID,357,VALID,0.568359,
2011-01-08, 02:07:05,VALID,999.764,VALID,0,INVALID,163.655,VALID,0,VALID,24.3636,VALID,357,VALID,0.53125,
2011-01-08, 02:08:05,VALID,999.746,VALID,0,INVALID,163.701,VALID,0,VALID,24.307,VALID,357,VALID,0.620313,
2011-01-08, 02:09:05,VALID,999.774,VALID,0,INVALID,163.708,VALID,0,VALID,24.2662,VALID,357,VALID,0.485156,
2011-01-08, 02:10:05,VALID,999.756,VALID,0,INVALID,163.655,VALID,0,VALID,24.2291,VALID,357,VALID,0.385156,
2011-01-08, 02:11:05,VALID,999.738,VALID,0,INVALID,163.662,VALID,0,VALID,24.1902,VALID,357,VALID,0.623828,
2011-01-08, 02:12:05,VALID,999.76,VALID,0,INVALID,163.708,VALID,0,VALID,24.1105,VALID,356,VALID,0.457812,
2011-01-08, 02:13:05,VALID,999.74,VALID,0,INVALID,163.708,VALID,0,VALID,24.1105,VALID,356,VALID,0.533984,
2011-01-08, 02:14:05,VALID,999.735,VALID,0,INVALID,163.708,VALID,0,VALID,24.1318,VALID,352,VALID,0.510938,
2011-01-08, 02:15:05,VALID,999.739,VALID,0,INVALID,163.678,VALID,0,VALID,24.1707,VALID,352,VALID,0.554688,
2011-01-08, 02:16:05,VALID,999.735,VALID,0,INVALID,163.701,VALID,0,VALID,24.1707,VALID,352,VALID,0.647266,
2011-01-08, 02:17:05,VALID,999.743,VALID,0,INVALID,163.693,VALID,0,VALID,24.1689,VALID,346,VALID,0.467969,
2011-01-08, 02:18:05,VALID,999.766,VALID,0,INVALID,163.701,VALID,0,VALID,24.2078,VALID,346,VALID,0.5,
2011-01-08, 02:19:05,VALID,999.769,VALID,0,INVALID,163.67,VALID,0,VALID,24.2681,VALID,346,VALID,0.487109,
2011-01-08, 02:20:05,VALID,999.753,VALID,0,INVALID,163.701,VALID,0,VALID,24.2857,VALID,346,VALID,0.214062,
2011-01-08, 02:21:05,VALID,999.754,VALID,0,INVALID,163.701,VALID,0,VALID,24.3265,VALID,346,VALID,0.257031,
2011-01-08, 02:22:05,VALID,999.726,VALID,0,INVALID,163.67,VALID,0,VALID,24.3246,VALID,339,VALID,0.457422,
2011-01-08, 02:23:05,VALID,999.734,VALID,0,INVALID,163.685,VALID,0,VALID,24.3246,VALID,334,VALID,0.467187,
2011-01-08, 02:24:05,VALID,999.719,VALID,0,INVALID,163.678,VALID,0,VALID,24.3849,VALID,309,VALID,0.552734,
2011-01-08, 02:25:05,VALID,999.695,VALID,0,INVALID,163.693,VALID,0,VALID,24.4025,VALID,353,VALID,0.694922,
2011-01-08, 02:26:05,VALID,999.685,VALID,0,INVALID,163.647,VALID,0,VALID,24.5017,VALID,327,VALID,0.616406,
2011-01-08, 02:27:04,VALID,999.662,VALID,0,INVALID,163.67,VALID,0,VALID,24.5777,VALID,354,VALID,0.769922,
2011-01-08, 02:28:04,VALID,999.686,VALID,0,INVALID,163.685,VALID,0,VALID,24.6945,VALID,340,VALID,0.821094,
2011-01-08, 02:29:04,VALID,999.694,VALID,0,INVALID,163.647,VALID,0,VALID,24.8308,VALID,346,VALID,0.124609,
2011-01-08, 02:30:04,VALID,999.698,VALID,0,INVALID,163.639,VALID,0,VALID,24.8892,VALID,345,VALID,0.589844,
2011-01-08, 02:31:04,VALID,999.716,VALID,0,INVALID,163.617,VALID,0,VALID,24.9885,VALID,349,VALID,0.719141,
2011-01-08, 02:32:04,VALID,999.73,VALID,0,INVALID,163.617,VALID,0,VALID,25.0255,VALID,348,VALID,0.277734,
2011-01-08, 02:33:04,VALID,999.754,VALID,0,INVALID,163.624,VALID,0,VALID,25.045,VALID,350,VALID,0.948828,
2011-01-08, 02:34:04,VALID,999.761,VALID,0,INVALID,163.624,VALID,0,VALID,25.082,VALID,354,VALID,1.03516,
2011-01-08, 02:35:04,VALID,999.749,VALID,0,INVALID,150.586,VALID,0,VALID,25.1813,VALID,330,VALID,0.705078,
2011-01-08, 02:36:04,VALID,999.747,VALID,0,INVALID,140.532,VALID,0,VALID,25.2202,VALID,330,VALID,0.587891,
2011-01-08, 02:37:04,VALID,999.753,VALID,0,INVALID,134.818,VALID,0,VALID,25.2806,VALID,343,VALID,0.535547,
2011-01-08, 02:38:04,VALID,999.742,VALID,0,INVALID,130.812,VALID,0,VALID,25.2786,VALID,349,VALID,0.487109,
2011-01-08, 02:39:04,VALID,999.75,VALID,0,INVALID,124.259,VALID,0,VALID,25.3195,VALID,334,VALID,0.608203,
2011-01-08, 02:40:04,VALID,999.718,VALID,0,INVALID,120.635,VALID,0,VALID,25.339,VALID,1,VALID,0.554297,
2011-01-08, 02:41:04,VALID,999.736,VALID,0,INVALID,118.126,VALID,0,VALID,25.337,VALID,331,VALID,0.35,
2011-01-08, 02:42:04,VALID,999.742,VALID,0,INVALID,116.89,VALID,0,VALID,25.339,VALID,351,VALID,0.944922,
2011-01-08, 02:43:04,VALID,999.752,VALID,0,INVALID,114.586,VALID,0,VALID,25.376,VALID,356,VALID,0.801172,
2011-01-08, 02:44:04,VALID,999.713,VALID,0,INVALID,112.694,VALID,0,VALID,25.4169,VALID,343,VALID,0.678906,
2011-01-08, 02:45:04,VALID,999.729,VALID,0,INVALID,112.434,VALID,0,VALID,25.4363,VALID,341,VALID,0.604688,
2011-01-08, 02:46:04,VALID,999.742,VALID,0,INVALID,111.054,VALID,0,VALID,25.4558,VALID,343,VALID,0.855078,
2011-01-08, 02:47:04,VALID,999.771,VALID,0,INVALID,109.52,VALID,0,VALID,25.4344,VALID,338,VALID,0.482812,
2011-01-08, 02:48:04,VALID,999.78,VALID,0,INVALID,109.795,VALID,0,VALID,25.4558,VALID,337,VALID,0.00234375,
2011-01-08, 02:49:04,VALID,999.771,VALID,0,INVALID,109.955,VALID,0,VALID,25.4558,VALID,337,VALID,0.245703,
2011-01-08, 02:50:04,VALID,999.757,VALID,0,INVALID,110.192,VALID,0,VALID,25.4344,VALID,348,VALID,0.637109,
2011-01-08, 02:51:04,VALID,999.731,VALID,0,INVALID,109.932,VALID,0,VALID,25.4363,VALID,349,VALID,0.325391,
2011-01-08, 02:52:04,VALID,999.731,VALID,0,INVALID,109.482,VALID,0,VALID,25.4169,VALID,345,VALID,0.576953,
2011-01-08, 02:53:04,VALID,999.739,VALID,0,INVALID,110.436,VALID,0,VALID,25.3779,VALID,356,VALID,0.568359,
2011-01-08, 02:54:04,VALID,999.697,VALID,0,INVALID,111.611,VALID,0,VALID,25.3195,VALID,346,VALID,0.784375,
2011-01-08, 02:55:04,VALID,999.74,VALID,0,INVALID,114.09,VALID,0,VALID,25.2202,VALID,336,VALID,0.839453,
2011-01-08, 02:56:04,VALID,999.723,VALID,0,INVALID,120.887,VALID,0,VALID,25.1832,VALID,345,VALID,0.690625,
2011-01-08, 02:57:04,VALID,999.735,VALID,0,INVALID,128.44,VALID,0,VALID,25.0839,VALID,349,VALID,0.847656,
2011-01-08, 02:58:04,VALID,999.744,VALID,0,INVALID,130.66,VALID,0,VALID,25.1248,VALID,358,VALID,0.6375,
2011-01-08, 02:59:04,VALID,999.754,VALID,0,INVALID,129.409,VALID,0,VALID,25.1442,VALID,344,VALID,1.05742,
2011-01-08, 03:00:04,VALID,999.768,VALID,0,INVALID,127.036,VALID,0,VALID,25.1832,VALID,358,VALID,0.656641,
2011-01-08, 03:01:04,VALID,999.798,VALID,0,INVALID,122.924,VALID,0,VALID,25.2027,VALID,337,VALID,0.563672,
2011-01-08, 03:02:04,VALID,999.786,VALID,0,INVALID,118.751,VALID,0,VALID,25.2416,VALID,348,VALID,1.04883,
2011-01-08, 03:03:04,VALID,999.767,VALID,0,INVALID,115.822,VALID,0,VALID,25.2806,VALID,339,VALID,0.689062,
2011-01-08, 03:04:04,VALID,999.725,VALID,0,INVALID,114.235,VALID,0,VALID,25.2806,VALID,346,VALID,0.789844,
2011-01-08, 03:05:04,VALID,999.725,VALID,0,INVALID,114.883,VALID,0,VALID,25.2416,VALID,352,VALID,0.626562,
2011-01-08, 03:06:04,VALID,999.735,VALID,0,INVALID,115.661,VALID,0,VALID,25.2221,VALID,353,VALID,0.575781,
2011-01-08, 03:07:04,VALID,999.731,VALID,0,INVALID,114.265,VALID,0,VALID,25.1832,VALID,338,VALID,0.51875,
2011-01-08, 03:08:04,VALID,999.694,VALID,0,INVALID,114.197,VALID,0,VALID,25.1832,VALID,355,VALID,0.742188,
2011-01-08, 03:09:04,VALID,999.693,VALID,0,INVALID,111.237,VALID,0,VALID,25.1832,VALID,343,VALID,0.478516,
2011-01-08, 03:10:04,VALID,999.7,VALID,0,INVALID,110.878,VALID,0.100563,VALID,25.1988,VALID,343,VALID,0.587891,
2011-01-08, 03:11:04,VALID,999.742,VALID,0,INVALID,109.97,VALID,0,VALID,25.2221,VALID,347,VALID,0.535937,
2011-01-08, 03:12:04,VALID,999.732,VALID,0,INVALID,111.504,VALID,0,VALID,25.2027,VALID,1,VALID,0.492578,
2011-01-08, 03:13:04,VALID,999.753,VALID,0,INVALID,112.427,VALID,0,VALID,25.1229,VALID,4,VALID,0.448047,
2011-01-08, 03:14:04,VALID,999.756,VALID,0,INVALID,113.754,VALID,0,VALID,25.0839,VALID,4,VALID,0.0597656,
2011-01-08, 03:15:04,VALID,999.742,VALID,0,INVALID,116.447,VALID,0,VALID,25.0644,VALID,4,VALID,0.141016,
2011-01-08, 03:16:04,VALID,999.697,VALID,0,INVALID,120.613,VALID,0,VALID,25.006,VALID,4,VALID,0.192578,
2011-01-08, 03:17:04,VALID,999.737,VALID,0,INVALID,124.259,VALID,0.100563,VALID,24.9476,VALID,4,VALID,0.339063,
2011-01-08, 03:18:04,VALID,999.751,VALID,0,INVALID,129.584,VALID,0,VALID,24.8697,VALID,8,VALID,0.363672,
2011-01-08, 03:19:04,VALID,999.744,VALID,0,INVALID,142.759,VALID,0,VALID,24.8327,VALID,8,VALID,0.251563,
2011-01-08, 03:20:04,VALID,999.743,VALID,0,INVALID,163.601,VALID,0,VALID,24.7919,VALID,17,VALID,0.342969,
2011-01-08, 03:21:04,VALID,999.778,VALID,0,INVALID,163.655,VALID,0.100563,VALID,24.7353,VALID,17,VALID,0.394531,
2011-01-08, 03:22:04,VALID,999.78,VALID,0,INVALID,163.67,VALID,0,VALID,24.6556,VALID,17,VALID,0.417188,
2011-01-08, 03:23:04,VALID,999.785,VALID,0,INVALID,163.655,VALID,0,VALID,24.5777,VALID,17,VALID,0.228516,
2011-01-08, 03:24:04,VALID,999.754,VALID,0,INVALID,163.662,VALID,0,VALID,24.5193,VALID,17,VALID,0.355078,
2011-01-08, 03:25:04,VALID,999.76,VALID,0,INVALID,163.693,VALID,0,VALID,24.4804,VALID,17,VALID,0.360938,
2011-01-08, 03:26:04,VALID,999.756,VALID,0,INVALID,163.662,VALID,0,VALID,24.4025,VALID,17,VALID,0.517187,
2011-01-08, 03:27:04,VALID,999.746,VALID,0,INVALID,163.708,VALID,0,VALID,24.3636,VALID,17,VALID,0.359375,
2011-01-08, 03:28:04,VALID,999.771,VALID,0,INVALID,163.678,VALID,0,VALID,24.3441,VALID,11,VALID,0.561719,
2011-01-08, 03:29:04,VALID,999.769,VALID,0,INVALID,163.693,VALID,0,VALID,24.3246,VALID,352,VALID,0.706641,
2011-01-08, 03:30:04,VALID,999.774,VALID,0,INVALID,163.701,VALID,0,VALID,24.3052,VALID,352,VALID,0.675391,
2011-01-08, 03:31:04,VALID,999.774,VALID,0,INVALID,163.708,VALID,0,VALID,24.2662,VALID,352,VALID,0.674609,
2011-01-08, 03:32:04,VALID,999.794,VALID,0,INVALID,163.716,VALID,0,VALID,24.2273,VALID,352,VALID,0.50625,
2011-01-08, 03:33:04,VALID,999.809,VALID,0,INVALID,163.685,VALID,0,VALID,24.2078,VALID,352,VALID,0.570703,
2011-01-08, 03:34:04,VALID,999.83,VALID,0,INVALID,163.701,VALID,0,VALID,24.1281,VALID,352,VALID,0.533203,
2011-01-08, 03:35:04,VALID,999.832,VALID,0,INVALID,163.708,VALID,0,VALID,24.1105,VALID,352,VALID,0.529297,
2011-01-08, 03:36:04,VALID,999.859,VALID,0,INVALID,163.693,VALID,0,VALID,24.091,VALID,352,VALID,0.592578,
2011-01-08, 03:37:04,VALID,999.863,VALID,0,INVALID,163.739,VALID,0,VALID,24.0521,VALID,352,VALID,0.665234,
2011-01-08, 03:38:04,VALID,999.862,VALID,0,INVALID,163.708,VALID,0,VALID,24.0326,VALID,352,VALID,0.557422,
2011-01-08, 03:39:04,VALID,999.832,VALID,0,INVALID,163.731,VALID,0.100563,VALID,24.0132,VALID,359,VALID,0.496875,
2011-01-08, 03:40:04,VALID,999.85,VALID,0,INVALID,163.723,VALID,0,VALID,23.9937,VALID,359,VALID,0.460156,
2011-01-08, 03:41:04,VALID,999.858,VALID,0,INVALID,163.701,VALID,0,VALID,24.015,VALID,359,VALID,0.534766,
2011-01-08, 03:42:04,VALID,999.838,VALID,0,INVALID,163.701,VALID,0,VALID,23.9742,VALID,359,VALID,0.58125,